FW8630 Weather Reports


time (UTC)temp
F
wind
direction
speed
knots
gust
knots
rain 1hr
in
rain 24hr
in
rain mn
in
humidity
%
barometer
mb
20260502231530 52 219 6.1 10.4 0.00 0.00 0.00 90 1012.4
20260502230027 52 222 5.2 8.7 0.00 0.00 0.00 90 1012.6
20260502224527 53 219 6.1 9.6 0.00 0.00 0.00 89 1012.5
20260502223023 52 225 6.1 12.2 0.00 0.00 0.00 90 1012.5
20260502221523 52 234 6.1 13.9 0.00 0.00 0.00 90 1012.8
20260502220018 52 196 5.2 10.4 0.00 0.00 0.00 91 1012.8
20260502214533 51 225 5.2 13.9 0.00 0.00 0.00 92 1012.9
20260502213016 51 222 4.3 8.7 0.00 0.00 0.00 93 1013.0
20260502211518 51 213 6.1 11.3 0.00 0.00 0.00 93 1013.2
20260502210024 51 231 7.0 12.2 0.00 0.00 0.00 92 1013.3
20260502204517 51 228 7.8 14.8 0.00 0.00 0.00 92 1013.3
20260502203015 51 214 5.2 9.6 0.00 0.00 0.00 92 1013.4
20260502201513 52 211 4.3 10.4 0.00 0.00 0.00 91 1013.4
20260502200013 52 202 7.0 16.5 0.00 0.00 0.00 90 1013.4
20260502194513 52 221 7.0 11.3 0.00 0.00 0.00 90 1013.2
20260502193012 52 219 6.1 11.3 0.00 0.00 0.00 90 1013.3
20260502191517 52 203 9.6 15.6 0.00 0.00 0.00 91 1013.2
20260502190010 52 207 7.0 15.6 0.00 0.00 0.00 91 1013.3
20260502184514 52 165 7.8 15.6 0.00 0.00 0.00 90 1013.3
20260502183010 52 198 8.7 16.5 0.00 0.00 0.00 90 1013.2
20260502181508 52 212 7.8 17.4 0.00 0.00 0.00 90 1013.2
20260502163003 54 199 8.7 20.0 0.00 0.00 0.00 86 1013.6
20260502161501 55 217 9.6 19.1 0.00 0.00 0.00 84 1014.0
20260502151554 58 213 11.3 26.1 0.00 0.00 0.00 79 1015.0
20260502123045 62 186 11.3 23.5 0.00 0.00 0.00 73 1017.6
20260502121541 62 360 10.4 19.1 0.00 0.00 0.00 71 1017.9
20260502114530 62 360 11.3 25.2 0.00 0.00 0.00 72 1018.4
20260502113028 61 198 12.2 22.6 0.00 0.00 0.00 74 1018.7
20260502111526 60 206 9.6 20.0 0.00 0.00 0.00 76 1018.9
20260502110031 60 168 9.6 18.2 0.00 0.00 0.00 76 1019.2
20260502104521 60 200 8.7 18.2 0.00 0.00 0.00 75 1019.4
20260502103022 60 203 8.7 18.2 0.00 0.00 0.00 75 1019.6
20260502101519 59 223 9.6 17.4 0.00 0.00 0.00 76 1019.6
20260502091510 59 219 6.1 9.6 0.00 0.00 0.00 79 1020.1
20260502070047 56 235 2.6 7.0 0.00 0.00 0.00 80 1021.1
20260502064543 55 240 2.6 6.1 0.00 0.00 0.00 81 1021.1
20260502063047 54 233 2.6 5.2 0.00 0.00 0.00 83 1021.2
20260502061539 54 219 1.7 4.3 0.00 0.00 0.00 83 1021.4
20260502060034 53 212 1.7 7.0 0.00 0.00 0.00 84 1021.5
20260502054536 53 236 3.5 7.8 0.00 0.00 0.00 85 1021.5
20260502053026 53 234 3.5 6.1 0.00 0.00 0.00 85 1021.3
20260502051520 53 211 2.6 4.3 0.00 0.00 0.00 84 1021.2
20260502050024 53 215 1.7 4.3 0.00 0.00 0.00 85 1021.2
20260502044512 52 198 2.6 7.0 0.00 0.00 0.00 85 1021.2
20260502043009 51 229 1.7 3.5 0.00 0.00 0.00 85 1021.3
20260502041507 50 182 0.9 3.5 0.00 0.00 0.00 87 1021.2
20260502033058 50 269 0.0 2.6 0.00 0.00 0.00 88 1021.2
20260502031555 51 243 2.6 7.8 0.00 0.00 0.00 85 1021.3
20260502030151 51 277 3.5 9.6 0.00 0.00 0.00 86 1021.4
20260502023049 50 240 2.6 7.8 0.00 0.00 0.00 88 1021.5
20260502021542 50 256 2.6 9.6 0.00 0.00 0.00 86 1021.5
20260502020038 49 248 2.6 10.4 0.00 0.00 0.00 89 1021.5
20260502014536 44 271 0.9 3.5 0.00 0.00 0.00 95 1021.7
20260502013043 41 288 0.9 5.2 0.00 0.00 0.00 97 1021.6
20260502011534 41 236 0.0 2.6 0.00 0.00 0.00 96 1021.7
20260502010029 41 182 0.0 2.6 0.00 0.00 0.00 96 1021.8
20260502004546 42 178 0.0 1.7 0.00 0.00 0.00 96 1021.9
20260502003026 42 178 0.9 2.6 0.00 0.00 0.00 96 1021.9
20260502001526 42 179 0.9 1.7 0.00 0.00 0.00 96 1021.9
20260502000027 43 179 0.0 1.7 0.00 0.00 0.00 95 1022.1
20260501234527 43 179 0.9 1.7 0.00 0.00 0.00 95 1022.1
20260501233020 44 179 0.0 2.6 0.00 0.00 0.00 95 1022.1